Weather History for KARA - November, 2011

Change the Weather History Date:

Friday, November 4, 2011

  Actual Average Record
Temperature  
Mean Temperature 53 °F 64 °F  
Max Temperature 67 °F 76 °F 86 °F (1978)
Min Temperature 38 °F 53 °F 31 °F (1991)
Degree Days  
Heating Degree Days 12 3  
Month to date heating degree days 21 12  
Since 1 July heating degree days 77 46  
Cooling Degree Days 0 2  
Month to date cooling degree days 4 11  
Year to date cooling degree days 3132 2756  
Growing Degree Days 2 (Base 50)    
Moisture  
Dew Point 40 °F    
Average Humidity 64    
Maximum Humidity 85    
Minimum Humidity 42    
Precipitation  
Precipitation 0.00 in 0.11 in 2.42 in (1954)
Month to date precipitation 0.17 0.38  
Year to date precipitation 29.44 50.82  
Sea Level Pressure  
Sea Level Pressure 30.16 in    
Wind  
Wind Speed 6 mph (NNW)    
Max Wind Speed 16 mph    
Max Gust Speed 20 mph    
Visibility 10 miles    
Events      
T = Trace of Precipitation, MM = Missing Value Source: NWS Daily Summary

Daily Weather History Graph

Daily Weather History Graph

Search for Another Location

Airport or City:

Trip Planner

Search our weather history database for the weather conditions in past years. The results will help you decide how hot, cold, wet, or windy it might be!

Date:

Astronomy

Nov. 04, 2011 Rise Set
Actual Time 7:23 AM CDT 6:18 PM CDT
Civil Twilight 6:58 AM CDT 6:43 PM CDT
Nautical Twilight 6:30 AM CDT 7:11 PM CDT
Astronomical Twilight 6:02 AM CDT 7:39 PM CDT
Moon 2:48 PM CDT (11/4) 1:59 AM CDT (11/4)
Length of Visible Light 11h 44m
Length of Day
10h 54m
Waxing Gibbous, 69% of the Moon is Illuminated
Nov 4
Waxing Gibbous
Nov 10
Full
Nov 18
Last Quarter
Nov 25
New
Dec 2
First Quarter

Hourly Weather History & Observations

Time (CDT) Temp. Windchill Dew Point Humidity Pressure Visibility Wind Dir Wind Speed Gust Speed Precip Events Conditions
12:53 AM 46.0 °F 43.1 °F 37.0 °F 71% 30.19 in 10.0 mi WNW 5.8 mph - N/A   Clear
1:53 AM 44.1 °F 41.5 °F 37.9 °F 79% 30.18 in 10.0 mi NW 4.6 mph - N/A   Clear
2:53 AM 43.0 °F 41.3 °F 36.0 °F 76% 30.17 in 10.0 mi NNW 3.5 mph - N/A   Clear
3:53 AM 43.0 °F 41.3 °F 35.1 °F 74% 30.16 in 10.0 mi NNW 3.5 mph - N/A   Clear
4:53 AM 43.0 °F 41.3 °F 34.0 °F 71% 30.16 in 10.0 mi NNW 3.5 mph - N/A   Clear
5:53 AM 39.0 °F 36.8 °F 33.1 °F 79% 30.17 in 10.0 mi SW 3.5 mph - N/A   Clear
6:53 AM 39.0 °F 35.7 °F 33.1 °F 79% 30.19 in 10.0 mi West 4.6 mph - N/A   Clear
7:53 AM 39.9 °F 37.8 °F 35.1 °F 83% 30.20 in 10.0 mi NW 3.5 mph - N/A   Clear
8:53 AM 46.9 °F - 37.0 °F 68% 30.22 in 10.0 mi NW 4.6 mph - N/A   Clear
9:53 AM 54.0 °F - 37.0 °F 53% 30.22 in 10.0 mi North 11.5 mph - N/A   Clear
10:53 AM 57.0 °F - 37.9 °F 49% 30.21 in 10.0 mi NNE 11.5 mph - N/A   Clear
11:53 AM 61.0 °F - 39.0 °F 44% 30.19 in 10.0 mi North 10.4 mph - N/A   Clear
12:53 PM 63.0 °F - 39.9 °F 43% 30.17 in 10.0 mi North 9.2 mph - N/A   Clear
1:53 PM 64.9 °F - 41.0 °F 42% 30.14 in 10.0 mi NNW 10.4 mph - N/A   Clear
2:53 PM 66.0 °F - 42.1 °F 42% 30.12 in 10.0 mi NW 8.1 mph 16.1 mph N/A   Clear
4:53 PM 66.0 °F - 43.0 °F 43% 30.10 in 10.0 mi North 6.9 mph - N/A   Clear
5:53 PM 63.0 °F - 44.1 °F 50% 30.10 in 10.0 mi North 6.9 mph - N/A   Clear
6:53 PM 55.0 °F - 44.1 °F 67% 30.12 in 10.0 mi North 4.6 mph - N/A   Clear
7:53 PM 53.1 °F - 44.1 °F 71% 30.13 in 10.0 mi North 3.5 mph - N/A   Clear
8:53 PM 55.0 °F - 45.0 °F 69% 30.14 in 10.0 mi North 4.6 mph - N/A   Clear
9:53 PM 52.0 °F - 45.0 °F 77% 30.15 in 10.0 mi North 4.6 mph - N/A   Clear
10:53 PM 50.0 °F - 44.1 °F 80% 30.15 in 10.0 mi NNE 6.9 mph - N/A   Clear
11:53 PM 51.1 °F - 45.0 °F 80% 30.16 in 10.0 mi NE 6.9 mph - N/A   Clear